CW5709 Weather Reports


Display with metric or nautical units.
time (UTC)temp
F
wind
direction
speed
MPH
gust
MPH
rain 1hr
in
rain 24hr
in
rain mn
in
humidity
%
barometer
mb
20260503203008 88 0.0 0.0 0.00 0.00 0.00 39 1010.2
20260503201513 87 0.0 0.0 0.00 0.00 0.00 39 1010.4
20260503200016 85 0.0 0.0 0.00 0.00 0.00 42 1010.6
20260503194504 83 0.0 0.0 0.00 0.00 0.00 46 1010.6
20260503193007 81 0.0 0.0 0.00 0.00 0.00 49 1010.7
20260503191527 78 0.0 0.0 0.00 0.00 0.00 54 1010.8
20260503190014 74 0.0 0.0 0.00 0.00 0.00 59 1011.0
20260503184519 71 0.0 0.0 0.00 0.00 0.00 63 1011.1
20260503183005 70 0.0 0.0 0.00 0.00 0.00 66 1011.2
20260503181508 68 0.0 0.0 0.00 0.00 0.00 70 1011.4
20260503180014 67 0.0 0.0 0.00 0.00 0.00 72 1011.5
20260503174516 65 0.0 0.0 0.00 0.00 0.00 76 1011.7
20260503173021 64 0.0 0.0 0.00 0.00 0.00 79 1011.7
20260503171504 62 0.0 0.0 0.00 0.00 0.00 82 1011.9
20260503081515 54 0.0 0.0 0.00 0.02 0.00 85 1012.4
20260503054510 59 0.0 0.0 0.00 0.02 0.02 78 1012.9
20260503053018 60 0.0 0.0 0.00 0.02 0.02 77 1012.9
20260503051515 61 0.0 0.0 0.00 0.02 0.02 76 1012.9
20260503050014 62 0.0 0.0 0.00 0.02 0.02 75 1012.7
20260503044516 62 0.0 0.0 0.00 0.02 0.02 75 1012.8
20260503043031 63 0.0 0.0 0.00 0.02 0.02 74 1012.8
20260503041518 63 0.0 0.0 0.00 0.02 0.02 73 1012.8
20260503040018 63 0.0 0.0 0.00 0.02 0.02 72 1012.6
20260503034514 64 0.0 0.0 0.00 0.02 0.02 72 1011.9
20260503033018 64 0.0 0.0 0.00 0.02 0.02 71 1011.4
20260503031516 65 0.0 0.0 0.00 0.02 0.02 70 1011.4
20260503030019 66 0.0 0.0 0.00 0.02 0.02 67 1011.7
20260503024525 66 0.0 0.0 0.00 0.02 0.02 66 1011.9
20260503023006 67 0.0 0.0 0.00 0.02 0.02 64 1012.2
20260503021534 68 0.0 0.0 0.00 0.02 0.02 63 1012.4
20260503020018 69 0.0 0.0 0.00 0.02 0.02 61 1012.4
20260503014517 69 0.0 0.0 0.00 0.02 0.02 59 1012.3
20260503013019 70 0.0 0.0 0.00 0.02 0.02 57 1012.7
20260503011506 71 0.0 0.0 0.00 0.02 0.02 55 1012.5
20260503010014 71 0.0 0.0 0.00 0.02 0.02 56 1012.4
20260503004520 71 0.0 0.0 0.00 0.02 0.02 56 1012.3
20260503001521 70 0.0 0.0 0.00 0.02 0.02 56 1012.3
20260503000011 70 0.0 0.0 0.00 0.02 0.02 56 1012.0
20260502234516 70 0.0 0.0 0.00 0.02 0.02 54 1012.2
20260502233022 71 0.0 0.0 0.00 0.02 0.02 54 1012.3
20260502231524 72 0.0 0.0 0.00 0.02 0.02 52 1012.4
20260502230025 72 0.0 0.0 0.00 0.02 0.02 52 1012.7
20260502224512 73 0.0 0.0 0.00 0.02 0.02 49 1012.8
20260502223016 74 0.0 0.0 0.00 0.02 0.02 49 1013.1
20260502221521 73 0.0 0.0 0.00 0.02 0.02 48 1013.5
20260502220029 73 0.0 0.0 0.00 0.02 0.02 48 1013.7
20260502214523 72 0.0 0.0 0.00 0.02 0.02 51 1013.9
20260502213017 72 0.0 0.0 0.00 0.02 0.02 50 1014.0
20260502211518 71 0.0 0.0 0.00 0.02 0.02 49 1014.1
20260502210023 71 0.0 0.0 0.00 0.02 0.02 50 1014.4
20260502204533 70 0.0 0.0 0.00 0.02 0.02 53 1014.7